Weather History for Litchfield, MN

Change the Weather History Date:

Thursday, February 9, 2012

  Actual Average Record
Temperature  
Mean Temperature 26 °F -  
Max Temperature 42 °F 24 °F 54 °F (1991)
Min Temperature 10 °F 3 °F -23 °F (1972)
Degree Days  
Heating Degree Days 39    
Moisture  
Dew Point 13 °F    
Average Humidity 66    
Maximum Humidity 93    
Minimum Humidity 36    
Precipitation  
Precipitation 0.00 in - - ()
Sea Level Pressure  
Sea Level Pressure 30.03 in    
Wind  
Wind Speed 5 mph (SW)    
Max Wind Speed 12 mph    
Max Gust Speed 18 mph    
Visibility 10 miles    
Events      
Averages and records for this station are not official NWS values.
T = Trace of Precipitation, MM = Missing Value Source: NWS Daily Summary

Daily Weather History Graph

Daily Weather History Graph

Search for Another Location

Airport:

Trip Planner

Search our weather history database for the weather conditions in past years. The results will help you decide how hot, cold, wet, or windy it might be!

Date:

Astronomy

Feb. 09, 2012 Rise Set
Actual Time 7:28 AM CST 5:36 PM CST
Civil Twilight 6:57 AM CST 6:07 PM CST
Nautical Twilight 6:23 AM CST 6:42 PM CST
Astronomical Twilight 5:48 AM CST 7:16 PM CST
Moon 8:16 PM CST (2/9) 7:56 AM CST (2/9)
Length of Visible Light 11h 09m
Length of Day
10h 08m
Waning Gibbous, 96% of the Moon is Illuminated
Feb 9
Waning Gibbous
Feb 14
Last Quarter
Feb 21
New
Feb 29
First Quarter
Mar 8
Full

Hourly Weather History & Observations

Time (CST) Temp. Windchill Dew Point Humidity Pressure Visibility Wind Dir Wind Speed Gust Speed Precip Events Conditions
12:13 AM 19.4 °F 12.8 °F 8.6 °F 63% 30.22 in 10.0 mi WSW 4.6 mph - N/A   Clear
12:33 AM 17.6 °F 12.3 °F 8.6 °F 68% 30.21 in 10.0 mi SW 3.5 mph - N/A   Clear
12:53 AM 17.6 °F 10.7 °F 8.6 °F 68% 30.20 in 10.0 mi WSW 4.6 mph - N/A   Clear
1:13 AM 15.8 °F 8.6 °F 8.6 °F 73% 30.20 in 10.0 mi WSW 4.6 mph - N/A   Clear
1:33 AM 15.8 °F 10.2 °F 6.8 °F 68% 30.19 in 10.0 mi WSW 3.5 mph - N/A   Clear
1:53 AM 15.8 °F 10.2 °F 6.8 °F 68% 30.19 in 10.0 mi WSW 3.5 mph - N/A   Clear
2:13 AM 15.8 °F 8.6 °F 6.8 °F 68% 30.18 in 10.0 mi SW 4.6 mph - N/A   Clear
2:34 AM 15.8 °F 8.6 °F 6.8 °F 68% 30.18 in 10.0 mi SW 4.6 mph - N/A   Clear
2:53 AM 14.0 °F 6.5 °F 6.8 °F 73% 30.17 in 10.0 mi SW 4.6 mph - N/A   Clear
3:13 AM 14.0 °F 8.2 °F 6.8 °F 73% 30.16 in 10.0 mi SW 3.5 mph - N/A   Clear
3:34 AM 12.2 °F 6.1 °F 6.8 °F 79% 30.15 in 10.0 mi SW 3.5 mph - N/A   Clear
3:53 AM 12.2 °F 6.1 °F 6.8 °F 79% 30.14 in 10.0 mi SW 3.5 mph - N/A   Clear
4:13 AM 12.2 °F - 6.8 °F 79% 30.14 in 10.0 mi Calm Calm - N/A   Clear
4:34 AM 12.2 °F 4.3 °F 6.8 °F 79% 30.13 in 10.0 mi SW 4.6 mph - N/A   Clear
4:53 AM 12.2 °F 1.7 °F 6.8 °F 79% 30.13 in 10.0 mi SW 6.9 mph - N/A   Clear
5:13 AM 12.2 °F 6.1 °F 6.8 °F 79% 30.13 in 10.0 mi SW 3.5 mph - N/A   Clear
5:33 AM 12.2 °F 6.1 °F 6.8 °F 79% 30.12 in 10.0 mi WSW 3.5 mph - N/A   Clear
5:53 AM 12.2 °F 6.1 °F 6.8 °F 79% 30.11 in 10.0 mi SW 3.5 mph - N/A   Clear
6:13 AM 12.2 °F 4.3 °F 8.6 °F 85% 30.10 in 10.0 mi SW 4.6 mph - N/A   Clear
6:33 AM 12.2 °F 6.1 °F 8.6 °F 85% 30.10 in 10.0 mi SSW 3.5 mph - N/A   Clear
6:53 AM 12.2 °F 4.3 °F 8.6 °F 85% 30.10 in 10.0 mi SW 4.6 mph - N/A   Clear
7:13 AM 10.4 °F - 8.6 °F 92% 30.08 in 10.0 mi Calm Calm - N/A   Clear
7:33 AM 10.4 °F 4.0 °F 8.6 °F 92% 30.08 in 10.0 mi SW 3.5 mph - N/A   Clear
7:53 AM 10.4 °F 2.2 °F 8.6 °F 92% 30.09 in 10.0 mi SSW 4.6 mph - N/A   Clear
8:13 AM 12.2 °F 6.1 °F 10.4 °F 92% 30.08 in 10.0 mi SW 3.5 mph - N/A   Clear
8:33 AM 14.0 °F 8.2 °F 12.2 °F 93% 30.07 in 10.0 mi SSW 3.5 mph - N/A   Clear
8:53 AM 15.8 °F - 12.2 °F 86% 30.06 in 10.0 mi Calm Calm - N/A   Clear
9:13 AM 17.6 °F 10.7 °F 14.0 °F 86% 30.07 in 10.0 mi SSW 4.6 mph - N/A   Clear
9:33 AM 19.4 °F 10.4 °F 15.8 °F 86% 30.06 in 10.0 mi WSW 6.9 mph - N/A   Clear
9:53 AM 21.2 °F 12.6 °F 17.6 °F 86% 30.05 in 10.0 mi SW 6.9 mph - N/A   Clear
10:13 AM 23.0 °F 14.7 °F 17.6 °F 80% 30.04 in 10.0 mi SW 6.9 mph - N/A   Clear
10:34 AM 24.8 °F 16.9 °F 19.4 °F 80% 30.02 in 10.0 mi SW 6.9 mph - N/A   Clear
10:53 AM 26.6 °F 19.1 °F 19.4 °F 74% 30.02 in 10.0 mi SW 6.9 mph - N/A   Clear
11:13 AM 28.4 °F 22.2 °F 19.4 °F 69% 30.01 in 10.0 mi SW 5.8 mph - N/A   Clear
11:34 AM 28.4 °F 19.7 °F 19.4 °F 69% 30.00 in 10.0 mi WSW 9.2 mph - N/A   Clear
11:53 AM 30.2 °F 24.3 °F 17.6 °F 60% 29.99 in 10.0 mi SW 5.8 mph - N/A   Clear
12:13 PM 32.0 °F 25.6 °F 17.6 °F 55% 29.97 in 10.0 mi SW 6.9 mph - N/A   Clear
12:33 PM 33.8 °F 30.8 °F 17.6 °F 52% 29.96 in 10.0 mi SSW 3.5 mph - N/A   Clear
12:53 PM 33.8 °F 29.6 °F 17.6 °F 52% 29.95 in 10.0 mi SSW 4.6 mph - N/A   Clear
1:13 PM 35.6 °F 31.7 °F 17.6 °F 48% 29.93 in 10.0 mi SSW 4.6 mph - N/A   Clear
1:34 PM 37.4 °F 32.1 °F 15.8 °F 41% 29.92 in 10.0 mi SSW 6.9 mph - N/A   Clear
1:53 PM 37.4 °F 31.4 °F 17.6 °F 45% 29.91 in 10.0 mi SSW 8.1 mph - N/A   Clear
2:13 PM 39.2 °F 33.6 °F 17.6 °F 42% 29.90 in 10.0 mi SW 8.1 mph 16.1 mph N/A   Clear
2:34 PM 39.2 °F 33.6 °F 17.6 °F 42% 29.90 in 10.0 mi SW 8.1 mph - N/A   Clear
2:53 PM 39.2 °F 33.6 °F 17.6 °F 42% 29.88 in 10.0 mi SW 8.1 mph - N/A   Clear
3:13 PM 41.0 °F 35.2 °F 17.6 °F 39% 29.87 in 10.0 mi SW 9.2 mph - N/A   Clear
3:33 PM 41.0 °F 34.3 °F 17.6 °F 39% 29.86 in 10.0 mi SW 11.5 mph 18.4 mph N/A   Clear
3:53 PM 42.8 °F 39.3 °F 17.6 °F 36% 29.86 in 10.0 mi SW 5.8 mph - N/A   Clear
4:13 PM 42.8 °F 37.5 °F 17.6 °F 36% 29.86 in 10.0 mi WSW 9.2 mph 17.3 mph N/A   Clear
4:34 PM 42.8 °F 37.5 °F 17.6 °F 36% 29.86 in 10.0 mi WSW 9.2 mph - N/A   Clear
4:53 PM 41.0 °F 35.2 °F 19.4 °F 42% 29.86 in 10.0 mi WSW 9.2 mph - N/A   Scattered Clouds
5:13 PM 41.0 °F 35.8 °F 19.4 °F 42% 29.86 in 10.0 mi WSW 8.1 mph 16.1 mph N/A   Mostly Cloudy
5:33 PM 39.2 °F 35.0 °F 19.4 °F 45% 29.87 in 10.0 mi WSW 5.8 mph - N/A   Scattered Clouds
5:53 PM 39.2 °F 35.0 °F 21.2 °F 49% 29.87 in 10.0 mi WSW 5.8 mph - N/A   Mostly Cloudy
6:13 PM 39.2 °F 35.0 °F 21.2 °F 49% 29.86 in 10.0 mi WSW 5.8 mph - N/A   Overcast
6:34 PM 37.4 °F 28.2 °F 24.8 °F 60% 29.88 in 10.0 mi NW 16.1 mph 28.8 mph N/A   Overcast
6:53 PM 35.6 °F 26.2 °F 23.0 °F 60% 29.90 in 10.0 mi NW 15.0 mph 21.9 mph N/A   Overcast
7:13 PM 33.8 °F 23.5 °F 23.0 °F 65% 29.90 in 10.0 mi NW 16.1 mph 21.9 mph N/A   Overcast
7:32 PM 32.0 °F 19.8 °F 21.2 °F 64% 29.90 in 10.0 mi NNW 20.7 mph 26.5 mph N/A   Overcast
7:53 PM 30.2 °F 17.4 °F 21.2 °F 69% 29.90 in 10.0 mi NNW 20.7 mph 26.5 mph N/A   Overcast
8:13 PM 30.2 °F 17.1 °F 21.2 °F 69% 29.91 in 10.0 mi NW 21.9 mph 32.2 mph N/A   Mostly Cloudy
8:33 PM 28.4 °F 15.1 °F 21.2 °F 74% 29.92 in 10.0 mi NNW 20.7 mph 29.9 mph N/A   Scattered Clouds
8:53 PM 26.6 °F 13.4 °F 19.4 °F 74% 29.93 in 10.0 mi NW 18.4 mph 27.6 mph N/A   Clear
9:13 PM 26.6 °F 13.4 °F 19.4 °F 74% 29.95 in 10.0 mi NW 18.4 mph 26.5 mph N/A   Mostly Cloudy
9:33 PM 26.6 °F 13.8 °F 17.6 °F 69% 29.96 in 10.0 mi NW 17.3 mph 27.6 mph N/A   Overcast
9:54 PM 24.8 °F 11.1 °F 17.6 °F 74% 29.98 in 10.0 mi NW 18.4 mph 27.6 mph N/A   Overcast
10:13 PM 23.0 °F 7.2 °F 15.8 °F 74% 29.99 in 10.0 mi NW 23.0 mph 31.1 mph N/A   Overcast
10:33 PM 21.2 °F 6.0 °F 14.0 °F 74% 30.01 in 10.0 mi NW 19.6 mph 29.9 mph N/A   Overcast
10:53 PM 19.4 °F 4.5 °F 12.2 °F 74% 30.01 in 10.0 mi NW 17.3 mph 28.8 mph N/A   Overcast
11:13 PM 17.6 °F 1.3 °F 8.6 °F 68% 30.03 in 10.0 mi NW 19.6 mph 28.8 mph N/A   Overcast
11:33 PM 15.8 °F 2.1 °F 6.8 °F 68% 30.04 in 10.0 mi NW 12.7 mph 21.9 mph N/A   Overcast
11:54 PM 14.0 °F -3.9 °F 3.2 °F 62% 30.05 in 10.0 mi NW 20.7 mph 27.6 mph N/A   Overcast